owner,sensor,date,latitude,longitude,vertical_datum,direction_of_sea_water_velocity,sea_water_speed,upward_sea_water_velocity,qcFlag 
TABS,ioos:station:wmo:42047:1,2013-02-01T00:00:00Z,27.8966,-93.5973,2.0,322.3121056,10.2230426,-99999.0,'11111222,11111222,99999999' 
TABS,ioos:station:wmo:42047:1,2013-02-01T00:30:00Z,27.8966,-93.5973,2.0,331.2535851,9.398297718,-99999.0,'11133222,11111222,99999999' 
TABS,ioos:station:wmo:42047:1,2013-02-01T01:00:00Z,27.8966,-93.5973,2.0,331.9277892,10.88,-99999.0,'11111222,11111222,99999999' 
TABS,ioos:station:wmo:42047:1,2013-02-01T01:30:00Z,27.8966,-93.5973,2.0,322.3581372,11.8710783,-99999.0,'11111222,11111222,99999999' 
TABS,ioos:station:wmo:42047:1,2013-02-01T02:00:00Z,27.8966,-93.5973,2.0,325.0716792,9.623523263,-99999.0,'11133222,11111222,99999999' 
TABS,ioos:station:wmo:42047:1,2013-02-01T02:30:00Z,27.8966,-93.5973,2.0,324.2984881,8.927855286,-99999.0,'11133222,11111222,99999999' 
TABS,ioos:station:wmo:42047:1,2013-02-01T03:00:00Z,27.8966,-93.5973,2.0,317.0162372,12.26174947,-99999.0,'11111222,11111222,99999999' 
TABS,ioos:station:wmo:42047:1,2013-02-01T03:30:00Z,27.8966,-93.5973,2.0,319.1584108,9.556955582,-99999.0,'11133222,11111222,99999999' 
TABS,ioos:station:wmo:42047:1,2013-02-01T04:00:00Z,27.8966,-93.5973,2.0,319.3013617,12.7284131,-99999.0,'11111222,11111222,99999999' 
TABS,ioos:station:wmo:42047:1,2013-02-01T04:30:00Z,27.8966,-93.5973,2.0,325.4940644,12.85093382,-99999.0,'11111222,11111222,99999999' 
TABS,ioos:station:wmo:42047:1,2013-02-01T05:00:00Z,27.8966,-93.5973,2.0,313.1164871,12.26078709,-99999.0,'11111222,11111222,99999999' 
TABS,ioos:station:wmo:42047:1,2013-02-01T05:30:00Z,27.8966,-93.5973,2.0,325.6014458,12.10725815,-99999.0,'11111222,11111222,99999999' 
TABS,ioos:station:wmo:42047:1,2013-02-01T06:00:00Z,27.8966,-93.5973,2.0,323.3623639,12.35010121,-99999.0,'11111222,11111222,99999999' 
TABS,ioos:station:wmo:42047:1,2013-02-01T06:30:00Z,27.8966,-93.5973,2.0,327.0901716,11.61372464,-99999.0,'11111222,11111222,99999999' 
TABS,ioos:station:wmo:42047:1,2013-02-01T07:00:00Z,27.8966,-93.5973,2.0,338.3381216,15.27905756,-99999.0,'11111222,11111222,99999999' 
TABS,ioos:station:wmo:42047:1,2013-02-01T07:30:00Z,27.8966,-93.5973,2.0,340.7905541,13.79827888,-99999.0,'11111222,11111222,99999999' 
TABS,ioos:station:wmo:42047:1,2013-02-01T08:00:00Z,27.8966,-93.5973,2.0,344.5500391,14.9398929,-99999.0,'11111222,11111222,99999999' 
TABS,ioos:station:wmo:42047:1,2013-02-01T08:30:00Z,27.8966,-93.5973,2.0,343.5557466,15.29567913,-99999.0,'11111222,11111222,99999999' 
TABS,ioos:station:wmo:42047:1,2013-02-01T09:00:00Z,27.8966,-93.5973,2.0,347.5251299,15.04521851,-99999.0,'11111222,11111222,99999999' 
TABS,ioos:station:wmo:42047:1,2013-02-01T09:30:00Z,27.8966,-93.5973,2.0,345.8438473,16.19171393,-99999.0,'11111222,11111222,99999999' 
TABS,ioos:station:wmo:42047:1,2013-02-01T10:00:00Z,27.8966,-93.5973,2.0,347.9364579,15.50236111,-99999.0,'11111222,11111222,99999999' 
TABS,ioos:station:wmo:42047:1,2013-02-01T10:30:00Z,27.8966,-93.5973,2.0,346.753771,16.54007557,-99999.0,'11111222,11111222,99999999' 
TABS,ioos:station:wmo:42047:1,2013-02-01T11:00:00Z,27.8966,-93.5973,2.0,347.7134579,14.37936369,-99999.0,'11111222,11111222,99999999' 
TABS,ioos:station:wmo:42047:1,2013-02-01T11:30:00Z,27.8966,-93.5973,2.0,349.5601508,17.0523019,-99999.0,'11111222,11111222,99999999' 
TABS,ioos:station:wmo:42047:1,2013-02-01T12:00:00Z,27.8966,-93.5973,2.0,342.1453308,14.0570445,-99999.0,'11111222,11111222,99999999' 
TABS,ioos:station:wmo:42047:1,2013-02-01T12:30:00Z,27.8966,-93.5973,2.0,350.8906278,15.22199067,-99999.0,'11111222,11111222,99999999' 
TABS,ioos:station:wmo:42047:1,2013-02-01T13:00:00Z,27.8966,-93.5973,2.0,339.6756599,13.61784858,-99999.0,'11111222,11111222,99999999' 
TABS,ioos:station:wmo:42047:1,2013-02-01T13:30:00Z,27.8966,-93.5973,2.0,355.1399954,11.33074137,-99999.0,'11111222,11111222,99999999' 
TABS,ioos:station:wmo:42047:1,2013-02-01T14:00:00Z,27.8966,-93.5973,2.0,349.3458747,12.16980279,-99999.0,'11111222,11111222,99999999' 
TABS,ioos:station:wmo:42047:1,2013-02-01T14:30:00Z,27.8966,-93.5973,2.0,347.6984192,13.14175026,-99999.0,'11111222,11111222,99999999' 
TABS,ioos:station:wmo:42047:1,2013-02-01T15:00:00Z,27.8966,-93.5973,2.0,347.6544338,15.62124195,-99999.0,'11111222,11111222,99999999' 
TABS,ioos:station:wmo:42047:1,2013-02-01T15:30:00Z,27.8966,-93.5973,2.0,351.0869421,13.55367478,-99999.0,'11111222,11111222,99999999' 
TABS,ioos:station:wmo:42047:1,2013-02-01T16:00:00Z,27.8966,-93.5973,2.0,351.248203,14.85294584,-99999.0,'11111222,11111222,99999999' 
TABS,ioos:station:wmo:42047:1,2013-02-01T16:30:00Z,27.8966,-93.5973,2.0,346.0563748,12.03463336,-99999.0,'11111222,11111222,99999999' 
TABS,ioos:station:wmo:42047:1,2013-02-01T17:00:00Z,27.8966,-93.5973,2.0,354.6054905,11.91276626,-99999.0,'11111222,11111222,99999999' 
TABS,ioos:station:wmo:42047:1,2013-02-01T17:30:00Z,27.8966,-93.5973,2.0,356.4476971,15.00884073,-99999.0,'11111222,11111222,99999999' 
TABS,ioos:station:wmo:42047:1,2013-02-01T18:00:00Z,27.8966,-93.5973,2.0,349.7081937,16.00756384,-99999.0,'11111222,11111222,99999999' 
TABS,ioos:station:wmo:42047:1,2013-02-01T18:30:00Z,27.8966,-93.5973,2.0,359.4019362,16.28088757,-99999.0,'11111222,11144222,99999999' 
TABS,ioos:station:wmo:42047:1,2013-02-01T19:00:00Z,27.8966,-93.5973,2.0,359.6062065,17.4504126,-99999.0,'11111222,11144222,99999999' 
TABS,ioos:station:wmo:42047:1,2013-02-01T19:30:00Z,27.8966,-93.5973,2.0,349.378527,17.14374813,-99999.0,'11111222,11111222,99999999' 
TABS,ioos:station:wmo:42047:1,2013-02-01T20:00:00Z,27.8966,-93.5973,2.0,354.0165669,17.74668983,-99999.0,'11111222,11111222,99999999' 
TABS,ioos:station:wmo:42047:1,2013-02-01T20:30:00Z,27.8966,-93.5973,2.0,359.7468517,15.83015477,-99999.0,'11111222,11144222,99999999' 
TABS,ioos:station:wmo:42047:1,2013-02-01T21:00:00Z,27.8966,-93.5973,2.0,6.777265159,15.93131507,-99999.0,'11111222,11111222,99999999' 
TABS,ioos:station:wmo:42047:1,2013-02-01T21:30:00Z,27.8966,-93.5973,2.0,352.6557724,16.19285336,-99999.0,'11111222,11111222,99999999' 
TABS,ioos:station:wmo:42047:1,2013-02-01T22:00:00Z,27.8966,-93.5973,2.0,9.296728417,15.9089566,-99999.0,'11111222,11111222,99999999' 
TABS,ioos:station:wmo:42047:1,2013-02-01T22:30:00Z,27.8966,-93.5973,2.0,6.387312549,10.78695508,-99999.0,'11111222,11111222,99999999' 
TABS,ioos:station:wmo:42047:1,2013-02-01T23:00:00Z,27.8966,-93.5973,2.0,3.40909997,11.09963963,-99999.0,'11111222,11111222,99999999' 
TABS,ioos:station:wmo:42047:1,2013-02-01T23:30:00Z,27.8966,-93.5973,2.0,358.3795953,10.25410162,-99999.0,'11111222,11111222,99999999' 
TABS,ioos:station:wmo:42047:1,2013-02-02T00:00:00Z,27.8966,-93.5973,2.0,20.9504523,10.37594333,-99999.0,'11111222,11111222,99999999' 
TABS,ioos:station:wmo:42047:1,2013-02-02T00:30:00Z,27.8966,-93.5973,2.0,357.5746136,6.615927751,-99999.0,'11133222,11111222,99999999' 
TABS,ioos:station:wmo:42047:1,2013-02-02T01:00:00Z,27.8966,-93.5973,2.0,5.061395244,8.954914852,-99999.0,'11133222,11111222,99999999' 
TABS,ioos:station:wmo:42047:1,2013-02-02T01:30:00Z,27.8966,-93.5973,2.0,330.5682555,8.404718913,-99999.0,'11133222,11111222,99999999' 
TABS,ioos:station:wmo:42047:1,2013-02-02T02:00:00Z,27.8966,-93.5973,2.0,336.0053705,5.385396921,-99999.0,'11133222,11111222,99999999' 
TABS,ioos:station:wmo:42047:1,2013-02-02T02:30:00Z,27.8966,-93.5973,2.0,2.397888618,4.063557555,-99999.0,'11133222,11111222,99999999' 
TABS,ioos:station:wmo:42047:1,2013-02-02T03:00:00Z,27.8966,-93.5973,2.0,326.2856524,6.467804883,-99999.0,'11133222,11111222,99999999' 
TABS,ioos:station:wmo:42047:1,2013-02-02T03:30:00Z,27.8966,-93.5973,2.0,317.4088891,5.215985046,-99999.0,'11133222,11111222,99999999' 
TABS,ioos:station:wmo:42047:1,2013-02-02T04:00:00Z,27.8966,-93.5973,2.0,316.9146337,7.832043156,-99999.0,'11133222,11111222,99999999' 
TABS,ioos:station:wmo:42047:1,2013-02-02T04:30:00Z,27.8966,-93.5973,2.0,324.5740475,10.16122532,-99999.0,'11111222,11111222,99999999' 
TABS,ioos:station:wmo:42047:1,2013-02-02T05:00:00Z,27.8966,-93.5973,2.0,318.3292994,8.889190064,-99999.0,'11133222,11111222,99999999' 
TABS,ioos:station:wmo:42047:1,2013-02-02T05:30:00Z,27.8966,-93.5973,2.0,319.5796439,8.945171882,-99999.0,'11133222,11111222,99999999' 
TABS,ioos:station:wmo:42047:1,2013-02-02T06:00:00Z,27.8966,-93.5973,2.0,337.9107757,9.971965704,-99999.0,'11133222,11111222,99999999' 
TABS,ioos:station:wmo:42047:1,2013-02-02T06:30:00Z,27.8966,-93.5973,2.0,330.2849021,12.04377433,-99999.0,'11111222,11111222,99999999' 
TABS,ioos:station:wmo:42047:1,2013-02-02T07:00:00Z,27.8966,-93.5973,2.0,339.5544501,14.59973972,-99999.0,'11111222,11111222,99999999' 
TABS,ioos:station:wmo:42047:1,2013-02-02T07:30:00Z,27.8966,-93.5973,2.0,345.6252732,11.07679557,-99999.0,'11111222,11111222,99999999' 
TABS,ioos:station:wmo:42047:1,2013-02-02T08:00:00Z,27.8966,-93.5973,2.0,338.3365232,13.1379831,-99999.0,'11111222,11111222,99999999' 
TABS,ioos:station:wmo:42047:1,2013-02-02T08:30:00Z,27.8966,-93.5973,2.0,350.8842366,14.95893713,-99999.0,'11111222,11111222,99999999' 
TABS,ioos:station:wmo:42047:1,2013-02-02T09:00:00Z,27.8966,-93.5973,2.0,340.3496645,11.92447064,-99999.0,'11111222,11111222,99999999' 
TABS,ioos:station:wmo:42047:1,2013-02-02T09:30:00Z,27.8966,-93.5973,2.0,337.1188705,12.80782573,-99999.0,'11111222,11111222,99999999' 
TABS,ioos:station:wmo:42047:1,2013-02-02T10:00:00Z,27.8966,-93.5973,2.0,349.4807987,11.94068675,-99999.0,'11111222,11111222,99999999' 
TABS,ioos:station:wmo:42047:1,2013-02-02T10:30:00Z,27.8966,-93.5973,2.0,351.4956511,12.9827578,-99999.0,'11111222,11111222,99999999' 
TABS,ioos:station:wmo:42047:1,2013-02-02T11:00:00Z,27.8966,-93.5973,2.0,354.2491454,12.67379186,-99999.0,'11111222,11111222,99999999' 
TABS,ioos:station:wmo:42047:1,2013-02-02T11:30:00Z,27.8966,-93.5973,2.0,349.2535545,14.96242293,-99999.0,'11111222,11111222,99999999' 
TABS,ioos:station:wmo:42047:1,2013-02-02T12:00:00Z,27.8966,-93.5973,2.0,352.3515918,12.62230169,-99999.0,'11111222,11111222,99999999' 
TABS,ioos:station:wmo:42047:1,2013-02-02T12:30:00Z,27.8966,-93.5973,2.0,341.3153496,13.04768179,-99999.0,'11111222,11111222,99999999' 
TABS,ioos:station:wmo:42047:1,2013-02-02T13:00:00Z,27.8966,-93.5973,2.0,350.3028526,14.42613254,-99999.0,'11111222,11111222,99999999' 
TABS,ioos:station:wmo:42047:1,2013-02-02T13:30:00Z,27.8966,-93.5973,2.0,349.9578293,15.42634759,-99999.0,'11111222,11111222,99999999' 
TABS,ioos:station:wmo:42047:1,2013-02-02T14:00:00Z,27.8966,-93.5973,2.0,1.561621002,12.84476936,-99999.0,'11111222,11111222,99999999' 
TABS,ioos:station:wmo:42047:1,2013-02-02T14:30:00Z,27.8966,-93.5973,2.0,353.2433283,13.51386325,-99999.0,'11111222,11111222,99999999' 
TABS,ioos:station:wmo:42047:1,2013-02-02T15:00:00Z,27.8966,-93.5973,2.0,341.9397808,11.12829277,-99999.0,'11111222,11111222,99999999' 
TABS,ioos:station:wmo:42047:1,2013-02-02T15:30:00Z,27.8966,-93.5973,2.0,348.5489835,11.13158569,-99999.0,'11111222,11111222,99999999' 
TABS,ioos:station:wmo:42047:1,2013-02-02T16:00:00Z,27.8966,-93.5973,2.0,355.8752498,13.48493233,-99999.0,'11111222,11111222,99999999' 
TABS,ioos:station:wmo:42047:1,2013-02-02T16:30:00Z,27.8966,-93.5973,2.0,348.2012409,12.17729444,-99999.0,'11111222,11111222,99999999' 
TABS,ioos:station:wmo:42047:1,2013-02-02T17:00:00Z,27.8966,-93.5973,2.0,346.5670896,11.75150203,-99999.0,'11111222,11111222,99999999' 
TABS,ioos:station:wmo:42047:1,2013-02-02T17:30:00Z,27.8966,-93.5973,2.0,342.701807,8.609413453,-99999.0,'11133222,11111222,99999999' 
TABS,ioos:station:wmo:42047:1,2013-02-02T18:00:00Z,27.8966,-93.5973,2.0,352.0856663,12.78175262,-99999.0,'11111222,11111222,99999999' 
TABS,ioos:station:wmo:42047:1,2013-02-02T18:30:00Z,27.8966,-93.5973,2.0,348.2228338,15.38386167,-99999.0,'11111222,11111222,99999999' 
TABS,ioos:station:wmo:42047:1,2013-02-02T19:00:00Z,27.8966,-93.5973,2.0,349.7253583,13.67937133,-99999.0,'11111222,11111222,99999999' 
TABS,ioos:station:wmo:42047:1,2013-02-02T19:30:00Z,27.8966,-93.5973,2.0,344.3981067,11.00552588,-99999.0,'11111222,11111222,99999999' 
TABS,ioos:station:wmo:42047:1,2013-02-02T20:00:00Z,27.8966,-93.5973,2.0,341.9555707,9.749528194,-99999.0,'11133222,11111222,99999999' 
TABS,ioos:station:wmo:42047:1,2013-02-02T20:30:00Z,27.8966,-93.5973,2.0,347.9363438,12.96636032,-99999.0,'11111222,11111222,99999999' 
TABS,ioos:station:wmo:42047:1,2013-02-02T21:00:00Z,27.8966,-93.5973,2.0,343.7205753,3.531600204,-99999.0,'11133222,11111222,99999999' 
TABS,ioos:station:wmo:42047:1,2013-02-02T21:30:00Z,27.8966,-93.5973,2.0,304.1763879,6.212865683,-99999.0,'11133222,11111222,99999999' 
TABS,ioos:station:wmo:42047:1,2013-02-02T22:00:00Z,27.8966,-93.5973,2.0,287.336379,7.584536901,-99999.0,'11133222,11111222,99999999' 
TABS,ioos:station:wmo:42047:1,2013-02-02T22:30:00Z,27.8966,-93.5973,2.0,292.6094408,8.167692453,-99999.0,'11133222,11111222,99999999' 
TABS,ioos:station:wmo:42047:1,2013-02-02T23:00:00Z,27.8966,-93.5973,2.0,310.471502,10.02980558,-99999.0,'11111222,11111222,99999999' 
TABS,ioos:station:wmo:42047:1,2013-02-02T23:30:00Z,27.8966,-93.5973,2.0,300.2567873,8.474390834,-99999.0,'11133222,11111222,99999999' 
TABS,ioos:station:wmo:42047:1,2013-02-03T00:00:00Z,27.8966,-93.5973,2.0,304.8033468,11.42343206,-99999.0,'11111222,11111222,99999999' 
TABS,ioos:station:wmo:42047:1,2013-02-03T00:30:00Z,27.8966,-93.5973,2.0,301.3604411,10.16496434,-99999.0,'11111222,11111222,99999999' 
TABS,ioos:station:wmo:42047:1,2013-02-03T01:00:00Z,27.8966,-93.5973,2.0,307.0071267,10.88203106,-99999.0,'11111222,11111222,99999999' 
TABS,ioos:station:wmo:42047:1,2013-02-03T01:30:00Z,27.8966,-93.5973,2.0,313.4165078,9.21004886,-99999.0,'11133222,11111222,99999999' 
TABS,ioos:station:wmo:42047:1,2013-02-03T02:00:00Z,27.8966,-93.5973,2.0,308.3636824,9.055075925,-99999.0,'11133222,11111222,99999999' 
TABS,ioos:station:wmo:42047:1,2013-02-03T02:30:00Z,27.8966,-93.5973,2.0,308.3828542,8.71303621,-99999.0,'11133222,11111222,99999999' 
TABS,ioos:station:wmo:42047:1,2013-02-03T03:00:00Z,27.8966,-93.5973,2.0,316.7141622,8.984275152,-99999.0,'11133222,11111222,99999999' 
TABS,ioos:station:wmo:42047:1,2013-02-03T03:30:00Z,27.8966,-93.5973,2.0,328.2499374,7.620400252,-99999.0,'11133222,11111222,99999999' 
TABS,ioos:station:wmo:42047:1,2013-02-03T04:00:00Z,27.8966,-93.5973,2.0,322.5452271,8.616449385,-99999.0,'11133222,11111222,99999999' 
TABS,ioos:station:wmo:42047:1,2013-02-03T04:30:00Z,27.8966,-93.5973,2.0,331.5799808,6.492472564,-99999.0,'11133222,11111222,99999999' 
TABS,ioos:station:wmo:42047:1,2013-02-03T05:00:00Z,27.8966,-93.5973,2.0,315.3789158,6.420669747,-99999.0,'11133222,11111222,99999999' 
TABS,ioos:station:wmo:42047:1,2013-02-03T05:30:00Z,27.8966,-93.5973,2.0,308.0916027,4.879108525,-99999.0,'11133222,11111222,99999999' 
TABS,ioos:station:wmo:42047:1,2013-02-03T06:00:00Z,27.8966,-93.5973,2.0,319.6924558,8.471245481,-99999.0,'11133222,11111222,99999999' 
TABS,ioos:station:wmo:42047:1,2013-02-03T06:30:00Z,27.8966,-93.5973,2.0,314.2526172,8.669867358,-99999.0,'11133222,11111222,99999999' 
TABS,ioos:station:wmo:42047:1,2013-02-03T07:00:00Z,27.8966,-93.5973,2.0,315.4580608,10.62108281,-99999.0,'11111222,11111222,99999999' 
TABS,ioos:station:wmo:42047:1,2013-02-03T07:30:00Z,27.8966,-93.5973,2.0,322.7588907,11.10423343,-99999.0,'11111222,11111222,99999999' 
TABS,ioos:station:wmo:42047:1,2013-02-03T08:00:00Z,27.8966,-93.5973,2.0,331.6467657,11.03366213,-99999.0,'11111222,11111222,99999999' 
TABS,ioos:station:wmo:42047:1,2013-02-03T08:30:00Z,27.8966,-93.5973,2.0,339.7916894,10.4215354,-99999.0,'11111222,11111222,99999999' 
TABS,ioos:station:wmo:42047:1,2013-02-03T09:00:00Z,27.8966,-93.5973,2.0,336.138349,11.56887203,-99999.0,'11111222,11111222,99999999' 
TABS,ioos:station:wmo:42047:1,2013-02-03T09:30:00Z,27.8966,-93.5973,2.0,347.927392,9.131976785,-99999.0,'11133222,11111222,99999999' 
TABS,ioos:station:wmo:42047:1,2013-02-03T10:00:00Z,27.8966,-93.5973,2.0,348.7406256,11.16489588,-99999.0,'11111222,11111222,99999999' 
TABS,ioos:station:wmo:42047:1,2013-02-03T10:30:00Z,27.8966,-93.5973,2.0,13.42454912,7.494778182,-99999.0,'11133222,11111222,99999999' 
TABS,ioos:station:wmo:42047:1,2013-02-03T11:00:00Z,27.8966,-93.5973,2.0,357.4426701,10.98093803,-99999.0,'11111222,11111222,99999999' 
TABS,ioos:station:wmo:42047:1,2013-02-03T11:30:00Z,27.8966,-93.5973,2.0,354.5707501,7.503665771,-99999.0,'11133222,11111222,99999999' 
TABS,ioos:station:wmo:42047:1,2013-02-03T12:00:00Z,27.8966,-93.5973,2.0,36.51886673,10.11618999,-99999.0,'11111222,11111222,99999999' 
TABS,ioos:station:wmo:42047:1,2013-02-03T12:30:00Z,27.8966,-93.5973,2.0,358.4025024,9.683764764,-99999.0,'11133222,11111222,99999999' 
TABS,ioos:station:wmo:42047:1,2013-02-03T13:00:00Z,27.8966,-93.5973,2.0,321.3305264,8.978429707,-99999.0,'11133222,11111222,99999999' 
TABS,ioos:station:wmo:42047:1,2013-02-03T13:30:00Z,27.8966,-93.5973,2.0,330.6654451,9.532313465,-99999.0,'11133222,11111222,99999999' 
TABS,ioos:station:wmo:42047:1,2013-02-03T14:00:00Z,27.8966,-93.5973,2.0,337.9071845,9.11961622,-99999.0,'11133222,11111222,99999999' 
TABS,ioos:station:wmo:42047:1,2013-02-03T14:30:00Z,27.8966,-93.5973,2.0,351.0574774,7.976966842,-99999.0,'11133222,11111222,99999999' 
TABS,ioos:station:wmo:42047:1,2013-02-03T15:00:00Z,27.8966,-93.5973,2.0,346.6921849,5.343491368,-99999.0,'11133222,11111222,99999999' 
TABS,ioos:station:wmo:42047:1,2013-02-03T15:30:00Z,27.8966,-93.5973,2.0,345.9639998,4.452954076,-99999.0,'11133222,11111222,99999999' 
TABS,ioos:station:wmo:42047:1,2013-02-03T16:00:00Z,27.8966,-93.5973,2.0,5.284198244,1.73738309,-99999.0,'11133222,11111222,99999999' 
TABS,ioos:station:wmo:42047:1,2013-02-03T16:30:00Z,27.8966,-93.5973,2.0,18.20684788,3.96868996,-99999.0,'11133222,11111222,99999999' 
TABS,ioos:station:wmo:42047:1,2013-02-03T17:00:00Z,27.8966,-93.5973,2.0,43.84756725,5.976261373,-99999.0,'11133222,11111222,99999999' 
TABS,ioos:station:wmo:42047:1,2013-02-03T17:30:00Z,27.8966,-93.5973,2.0,13.94508912,4.564526262,-99999.0,'11133222,11111222,99999999' 
TABS,ioos:station:wmo:42047:1,2013-02-03T18:00:00Z,27.8966,-93.5973,2.0,38.68890941,3.087555668,-99999.0,'11133222,11111222,99999999' 
TABS,ioos:station:wmo:42047:1,2013-02-03T18:30:00Z,27.8966,-93.5973,2.0,51.97285821,1.980403999,-99999.0,'11133222,11111222,99999999' 
TABS,ioos:station:wmo:42047:1,2013-02-03T19:00:00Z,27.8966,-93.5973,2.0,32.73536018,1.830764867,-99999.0,'11133222,11111222,99999999' 
TABS,ioos:station:wmo:42047:1,2013-02-03T19:30:00Z,27.8966,-93.5973,2.0,69.02029586,1.42442971,-99999.0,'11133222,11111222,99999999' 
TABS,ioos:station:wmo:42047:1,2013-02-03T20:00:00Z,27.8966,-93.5973,2.0,99.26019988,2.796444171,-99999.0,'11133222,11111222,99999999' 
TABS,ioos:station:wmo:42047:1,2013-02-03T20:30:00Z,27.8966,-93.5973,2.0,196.8760147,0.930053762,-99999.0,'11133222,11111222,99999999' 
TABS,ioos:station:wmo:42047:1,2013-02-03T21:00:00Z,27.8966,-93.5973,2.0,343.6863962,1.708800749,-99999.0,'11133222,11111222,99999999' 
TABS,ioos:station:wmo:42047:1,2013-02-03T21:30:00Z,27.8966,-93.5973,2.0,74.2913989,0.664830806,-99999.0,'11133222,11111222,99999999' 
TABS,ioos:station:wmo:42047:1,2013-02-03T22:00:00Z,27.8966,-93.5973,2.0,210.1876,2.406345777,-99999.0,'11133222,11111222,99999999' 
TABS,ioos:station:wmo:42047:1,2013-02-03T22:30:00Z,27.8966,-93.5973,2.0,235.9009265,1.944273643,-99999.0,'11133222,11111222,99999999' 
TABS,ioos:station:wmo:42047:1,2013-02-03T23:00:00Z,27.8966,-93.5973,2.0,184.1289428,3.749733324,-99999.0,'11133222,11111222,99999999' 
TABS,ioos:station:wmo:42047:1,2013-02-03T23:30:00Z,27.8966,-93.5973,2.0,166.4088729,0.936215787,-99999.0,'11133222,11111222,99999999' 
TABS,ioos:station:wmo:42047:1,2013-02-04T00:00:00Z,27.8966,-93.5973,2.0,342.9512194,0.784474346,-99999.0,'11133222,11111222,99999999' 
TABS,ioos:station:wmo:42047:1,2013-02-04T00:30:00Z,27.8966,-93.5973,2.0,299.2957715,3.004213707,-99999.0,'11133222,11111222,99999999' 
TABS,ioos:station:wmo:42047:1,2013-02-04T01:00:00Z,27.8966,-93.5973,2.0,343.3291189,1.952050204,-99999.0,'11133222,11111222,99999999' 
TABS,ioos:station:wmo:42047:1,2013-02-04T01:30:00Z,27.8966,-93.5973,2.0,317.4257532,3.843032657,-99999.0,'11133222,11111222,99999999' 
TABS,ioos:station:wmo:42047:1,2013-02-04T02:00:00Z,27.8966,-93.5973,2.0,353.6956652,3.551478565,-99999.0,'11133222,11111222,99999999' 
TABS,ioos:station:wmo:42047:1,2013-02-04T02:30:00Z,27.8966,-93.5973,2.0,4.272981235,1.744849564,-99999.0,'11133222,11111222,99999999' 
TABS,ioos:station:wmo:42047:1,2013-02-04T03:00:00Z,27.8966,-93.5973,2.0,17.45579881,3.700405383,-99999.0,'11133222,11111222,99999999' 
TABS,ioos:station:wmo:42047:1,2013-02-04T03:30:00Z,27.8966,-93.5973,2.0,14.90282985,6.415800807,-99999.0,'11133222,11111222,99999999' 
TABS,ioos:station:wmo:42047:1,2013-02-04T04:00:00Z,27.8966,-93.5973,2.0,24.66093068,3.499142752,-99999.0,'11133222,11111222,99999999' 
TABS,ioos:station:wmo:42047:1,2013-02-04T04:30:00Z,27.8966,-93.5973,2.0,24.54599709,4.188520025,-99999.0,'11133222,11111222,99999999' 
TABS,ioos:station:wmo:42047:1,2013-02-04T05:00:00Z,27.8966,-93.5973,2.0,17.37971823,6.69567771,-99999.0,'11133222,11111222,99999999' 
TABS,ioos:station:wmo:42047:1,2013-02-04T05:30:00Z,27.8966,-93.5973,2.0,14.01792671,7.513754055,-99999.0,'11133222,11111222,99999999' 
TABS,ioos:station:wmo:42047:1,2013-02-04T06:00:00Z,27.8966,-93.5973,2.0,24.40782205,7.840739761,-99999.0,'11133222,11111222,99999999' 
TABS,ioos:station:wmo:42047:1,2013-02-04T06:30:00Z,27.8966,-93.5973,2.0,22.0448915,7.433451419,-99999.0,'11133222,11111222,99999999' 
TABS,ioos:station:wmo:42047:1,2013-02-04T07:00:00Z,27.8966,-93.5973,2.0,34.69528286,10.2774024,-99999.0,'11111222,11111222,99999999' 
TABS,ioos:station:wmo:42047:1,2013-02-04T07:30:00Z,27.8966,-93.5973,2.0,33.58677757,9.21913228,-99999.0,'11133222,11111222,99999999' 
TABS,ioos:station:wmo:42047:1,2013-02-04T08:00:00Z,27.8966,-93.5973,2.0,35.85077084,11.91788572,-99999.0,'11111222,11111222,99999999' 
TABS,ioos:station:wmo:42047:1,2013-02-04T08:30:00Z,27.8966,-93.5973,2.0,31.20699503,14.14704563,-99999.0,'11111222,11111222,99999999' 
TABS,ioos:station:wmo:42047:1,2013-02-04T09:00:00Z,27.8966,-93.5973,2.0,32.41420256,13.07752652,-99999.0,'11111222,11111222,99999999' 
TABS,ioos:station:wmo:42047:1,2013-02-04T09:30:00Z,27.8966,-93.5973,2.0,7.524874335,12.44718844,-99999.0,'11111222,11111222,99999999' 
TABS,ioos:station:wmo:42047:1,2013-02-04T10:00:00Z,27.8966,-93.5973,2.0,27.95511578,18.0682733,-99999.0,'11111222,11111222,99999999' 
TABS,ioos:station:wmo:42047:1,2013-02-04T10:30:00Z,27.8966,-93.5973,2.0,23.06019726,14.11810894,-99999.0,'11111222,11111222,99999999' 
TABS,ioos:station:wmo:42047:1,2013-02-04T11:00:00Z,27.8966,-93.5973,2.0,24.18304992,16.89243914,-99999.0,'11111222,11111222,99999999' 
TABS,ioos:station:wmo:42047:1,2013-02-04T11:30:00Z,27.8966,-93.5973,2.0,26.4233789,18.06748461,-99999.0,'11111222,11111222,99999999' 
TABS,ioos:station:wmo:42047:1,2013-02-04T12:00:00Z,27.8966,-93.5973,2.0,26.68108191,15.4780942,-99999.0,'11111222,11111222,99999999' 
TABS,ioos:station:wmo:42047:1,2013-02-04T12:30:00Z,27.8966,-93.5973,2.0,31.75961628,17.53570643,-99999.0,'11111222,11111222,99999999' 
TABS,ioos:station:wmo:42047:1,2013-02-04T13:00:00Z,27.8966,-93.5973,2.0,34.82888591,14.37512087,-99999.0,'11111222,11111222,99999999' 
TABS,ioos:station:wmo:42047:1,2013-02-04T13:30:00Z,27.8966,-93.5973,2.0,26.72136533,14.76704778,-99999.0,'11111222,11111222,99999999' 
TABS,ioos:station:wmo:42047:1,2013-02-04T14:00:00Z,27.8966,-93.5973,2.0,34.85841198,17.54881477,-99999.0,'11111222,11111222,99999999' 
TABS,ioos:station:wmo:42047:1,2013-02-04T14:30:00Z,27.8966,-93.5973,2.0,32.79766138,16.02445943,-99999.0,'11111222,11111222,99999999' 
TABS,ioos:station:wmo:42047:1,2013-02-04T15:00:00Z,27.8966,-93.5973,2.0,31.38368842,13.5761924,-99999.0,'11111222,11111222,99999999' 
TABS,ioos:station:wmo:42047:1,2013-02-04T15:30:00Z,27.8966,-93.5973,2.0,28.87337147,11.65937391,-99999.0,'11111222,11111222,99999999' 
TABS,ioos:station:wmo:42047:1,2013-02-04T16:00:00Z,27.8966,-93.5973,2.0,31.96321549,14.3566152,-99999.0,'11111222,11111222,99999999' 